Weather History for Safford, AZ

Change the Weather History Date:

Friday, February 14, 2014

  Actual Average Record
Temperature  
Mean Temperature 63 °F -  
Max Temperature 82 °F 65 °F 83 °F (1957)
Min Temperature 44 °F 33 °F 20 °F (1965)
Degree Days  
Heating Degree Days 2    
Growing Degree Days 13 (Base 50)    
Moisture  
Dew Point 19 °F    
Average Humidity 21    
Maximum Humidity 37    
Minimum Humidity 8    
Precipitation  
Precipitation 0.00 in - - ()
Sea Level Pressure  
Sea Level Pressure 29.97 in    
Wind  
Wind Speed 7 mph (NW)    
Max Wind Speed 18 mph    
Max Gust Speed 23 mph    
Visibility 10 miles    
Events      
Averages and records for this station are not official NWS values.
T = Trace of Precipitation, MM = Missing Value Source: NWS Daily Summary

Daily Weather History Graph

Daily Weather History Graph

Search for Another Location

Airport:

Trip Planner

Search our weather history database for the weather conditions in past years. The results will help you decide how hot, cold, wet, or windy it might be!

Date:

Astronomy

Feb. 14, 2014 Rise Set
Actual Time 7:02 AM MST 6:03 PM MST
Civil Twilight 6:37 AM MST 6:28 PM MST
Nautical Twilight 6:08 AM MST 6:57 PM MST
Astronomical Twilight 5:39 AM MST 7:26 PM MST
Moon 6:07 PM MST (2/14) 6:33 AM MST (2/14)
Length of Visible Light 11h 51m
Length of Day
11h 00m
Full, 100% of the Moon is Illuminated
Feb 14
Full
Feb 14
Full
Feb 22
Last Quarter
Mar 1
New
Mar 8
First Quarter

Hourly Weather History & Observations

Time (MST) Temp. Windchill Dew Point Humidity Pressure Visibility Wind Dir Wind Speed Gust Speed Precip Events Conditions
12:51 AM 57.0 °F - 19.9 °F 24% 30.04 in 10.0 mi WNW 6.9 mph - N/A   Clear
1:51 AM 61.0 °F - 21.0 °F 21% 30.03 in 10.0 mi NNW 12.7 mph - N/A   Clear
2:51 AM 53.1 °F - 19.0 °F 26% 29.93 in 10.0 mi SW 4.6 mph - N/A   Clear
3:51 AM 48.9 °F - 19.0 °F 31% 29.94 in 10.0 mi ESE 5.8 mph - N/A   Clear
4:51 AM 45.0 °F - 19.0 °F 36% 29.96 in 10.0 mi Calm Calm - N/A   Clear
5:51 AM 44.1 °F 40.1 °F 19.0 °F 37% 30.00 in 10.0 mi ESE 6.9 mph - N/A   Clear
6:51 AM 44.1 °F 41.5 °F 19.0 °F 37% 30.02 in 10.0 mi East 4.6 mph - N/A   Clear
7:51 AM 48.9 °F - 19.9 °F 32% 30.04 in 10.0 mi East 4.6 mph - N/A   Clear
8:51 AM 53.1 °F - 21.0 °F 29% 30.06 in 10.0 mi ESE 5.8 mph - N/A   Clear
9:51 AM 60.1 °F - 21.0 °F 22% 30.06 in 10.0 mi Calm Calm - N/A   Clear
10:51 AM 64.0 °F - 21.9 °F 20% 30.04 in 10.0 mi West 5.8 mph - N/A   Clear
11:51 AM 70.0 °F - 21.9 °F 16% 30.00 in 10.0 mi NW 4.6 mph - N/A   Clear
12:51 PM 75.0 °F - 21.0 °F 13% 29.97 in 10.0 mi West 9.2 mph - N/A   Clear
1:51 PM 79.0 °F - 21.0 °F 12% 29.91 in 10.0 mi West 10.4 mph - N/A   Clear
2:51 PM 82.0 °F - 19.9 °F 10% 29.90 in 10.0 mi West 12.7 mph - N/A   Clear
3:51 PM 82.0 °F - 17.1 °F 9% 29.90 in 10.0 mi WNW 18.4 mph - N/A   Clear
4:51 PM 82.0 °F - 15.1 °F 8% 29.90 in 10.0 mi WNW 17.3 mph 23.0 mph N/A   Clear
5:51 PM 79.0 °F - 17.1 °F 10% 29.91 in 10.0 mi NW 13.8 mph - N/A   Clear
6:51 PM 72.0 °F - 17.1 °F 12% 29.94 in 10.0 mi NW 12.7 mph - N/A   Clear
7:51 PM 71.1 °F - 18.0 °F 13% 29.94 in 10.0 mi NNW 12.7 mph - N/A   Clear
8:51 PM 66.9 °F - 18.0 °F 15% 29.96 in 10.0 mi NNW 4.6 mph - N/A   Clear
9:51 PM 64.0 °F - 18.0 °F 17% 29.97 in 10.0 mi WNW 5.8 mph - N/A   Clear
10:51 PM 59.0 °F - 18.0 °F 20% 29.98 in 10.0 mi North 4.6 mph - N/A   Clear
11:51 PM 52.0 °F - 16.0 °F 24% 29.99 in 10.0 mi SE 4.6 mph - N/A   Clear